Lander, WY

5:46 AM MST on December 07, 2016 (GMT -0700)
Hunt

Weather History for KLND - April, 2013

Change the Weather History Date:

Saturday, April 6, 2013

  Actual Average Record
Temperature  
Mean Temperature 46 °F 41 °F  
Max Temperature 61 °F 54 °F 75 °F (1930)
Min Temperature 31 °F 29 °F 1 °F (1939)
Degree Days  
Heating Degree Days 19 24  
Month to date heating degree days 104 146  
Since 1 July heating degree days 6364 6765  
Cooling Degree Days 0 0  
Month to date cooling degree days 0 0  
Year to date cooling degree days 0 0  
Moisture  
Dew Point 22 °F    
Average Humidity 38    
Maximum Humidity 56    
Minimum Humidity 19    
Precipitation  
Precipitation 0.00 in 0.05 in 1.05 in (1957)
Month to date precipitation 0.00 0.30  
Year to date precipitation 2.40 2.45  
Snow  
Snow 0.00 in 0.60 in - ()
Month to date snowfall 0.0 3.5  
Since 1 July snowfall 57.3 73.2  
Snow Depth 0.00 in    
Sea Level Pressure  
Sea Level Pressure 29.82 in    
Wind  
Wind Speed 6 mph (WNW)    
Max Wind Speed 29 mph    
Max Gust Speed 36 mph    
Visibility 10 miles    
Events      
T = Trace of Precipitation, MM = Missing Value Source: NWS Daily Summary

Daily Weather History Graph

Daily Weather History Graph

Search for Another Location

Airport or City:

Trip Planner

Search our weather history database for the weather conditions in past years. The results will help you decide how hot, cold, wet, or windy it might be!

Date:

Astronomy

Apr. 06, 2013 Rise Set
Actual Time 6:47 AM MDT 7:47 PM MDT
Civil Twilight 6:19 AM MDT 8:16 PM MDT
Nautical Twilight 5:44 AM MDT 8:50 PM MDT
Astronomical Twilight 5:08 AM MDT 9:26 PM MDT
Moon 4:38 AM MDT (4/6) 4:14 PM MDT (4/6)
Length of Visible Light 13h 57m
Length of Day
12h 59m
Waning Crescent, 14% of the Moon is Illuminated
Apr 6
Waning Crescent
Apr 10
New
Apr 18
First Quarter
Apr 25
Full
May 2
Last Quarter

Hourly Weather History & Observations

Time (MDT) Temp. Windchill Dew Point Humidity Pressure Visibility Wind Dir Wind Speed Gust Speed Precip Events Conditions
12:53 AM 37.9 °F - 21.0 °F 51% 29.85 in 10.0 mi Calm Calm - N/A   Clear
1:53 AM 37.0 °F 31.6 °F 21.0 °F 52% 29.84 in 10.0 mi WNW 6.9 mph - N/A   Clear
2:53 AM 37.0 °F 33.3 °F 19.0 °F 48% 29.84 in 10.0 mi NNE 4.6 mph - N/A   Clear
3:53 AM 34.0 °F 31.0 °F 19.9 °F 56% 29.85 in 10.0 mi South 3.5 mph - N/A   Clear
4:53 AM 35.1 °F 31.0 °F 19.9 °F 54% 29.85 in 10.0 mi WNW 4.6 mph - N/A   Clear
5:53 AM 37.0 °F 31.0 °F 19.9 °F 50% 29.86 in 10.0 mi West 8.1 mph - N/A   Clear
6:53 AM 37.9 °F 35.5 °F 21.0 °F 51% 29.85 in 10.0 mi SW 3.5 mph - N/A   Clear
7:53 AM 37.0 °F - 21.0 °F 52% 29.88 in 10.0 mi Calm Calm - N/A   Clear
8:53 AM 37.0 °F 34.5 °F 21.9 °F 54% 29.89 in 10.0 mi East 3.5 mph - N/A   Clear
9:53 AM 39.9 °F - 24.1 °F 53% 29.89 in 10.0 mi Calm Calm - N/A   Partly Cloudy
10:53 AM 45.0 °F 42.6 °F 27.0 °F 49% 29.88 in 10.0 mi ESE 4.6 mph - N/A   Scattered Clouds
11:53 AM 48.9 °F - 24.1 °F 38% 29.86 in 10.0 mi East 9.2 mph - N/A   Clear
12:53 PM 55.9 °F - 21.9 °F 27% 29.80 in 10.0 mi NNE 4.6 mph - N/A   Clear
1:53 PM 57.0 °F - 19.0 °F 23% 29.78 in 10.0 mi NNW 10.4 mph 17.3 mph N/A   Partly Cloudy
2:53 PM 60.1 °F - 18.0 °F 20% 29.75 in 10.0 mi WNW 12.7 mph 20.7 mph N/A   Scattered Clouds
3:53 PM 57.9 °F - 21.9 °F 25% 29.76 in 10.0 mi West 16.1 mph 24.2 mph N/A   Mostly Cloudy
4:53 PM 55.9 °F - 19.9 °F 25% 29.76 in 10.0 mi West 12.7 mph - N/A   Partly Cloudy
5:53 PM 52.0 °F - 25.0 °F 35% 29.78 in 10.0 mi West 8.1 mph - N/A   Mostly Cloudy
6:53 PM 52.0 °F - 26.1 °F 37% 29.78 in 10.0 mi WNW 16.1 mph - N/A   Overcast
7:53 PM 50.0 °F - 27.0 °F 41% 29.78 in 10.0 mi West 3.5 mph - N/A   Overcast
8:53 PM 50.0 °F - 21.9 °F 33% 29.80 in 10.0 mi Calm Calm - N/A   Clear
9:53 PM 46.0 °F 43.1 °F 21.0 °F 37% 29.82 in 10.0 mi NNW 5.8 mph - N/A   Clear
10:53 PM 45.0 °F - 24.1 °F 44% 29.81 in 10.0 mi Calm Calm - N/A   Clear
11:53 PM 43.0 °F - 23.0 °F 45% 29.79 in 10.0 mi Calm Calm - N/A   Clear